Overview Statistics Trail Chart Weather Telemetry Raw packets
 

This is the latest recevied weather packets stored in our database for station/object K7DC. If no packets are shown the sender has not sent any weather packets the latest 10 day(s).

<< 39 40 41 42 43 44 45 >>
Time Temp. Humidity Pressure Rain* Wind** Luminosity Snow
1788369013 32.78° C 45% 1018.5 hPa 0 mm - 709 W/m² -
1788368708 32.78° C 45% 1018.5 hPa 0 mm - 697 W/m² -
1788368404 32.78° C 45% 1018.1 hPa 0 mm - 681 W/m² -
1788368104 32.78° C 45% 1018.4 hPa 0 mm - 671 W/m² -
1788367804 33.89° C 43% 1018.3 hPa 0 mm - 656 W/m² -
1788367499 32.78° C 45% 1018.3 hPa 0 mm - 637 W/m² -
1788367197 32.78° C 45% 1018.3 hPa 0 mm - 627 W/m² -
1788366894 32.78° C 45% 1018.4 hPa 0 mm - 607 W/m² -
1788366591 32.22° C 45% 1018.3 hPa 0 mm - 592 W/m² -
1788366286 32.78° C 46% 1018.2 hPa 0 mm - 578 W/m² -
1788365986 32.78° C 47% 1018.4 hPa 0 mm - 566 W/m² -
1788365682 32.22° C 47% 1018.3 hPa 0 mm - 550 W/m² -
1788365377 32.22° C 46% 1018.4 hPa 0 mm - 532 W/m² -
1788365073 32.22° C 46% 1018.5 hPa 0 mm - 516 W/m² -
1788364771 32.22° C 47% 1018.3 hPa 0 mm - 505 W/m² -
1788364467 31.11° C 50% 1018.4 hPa 0 mm - 224 W/m² -
1788364160 31.11° C 49% 1018.2 hPa 0 mm - 468 W/m² -
1788363856 31.67° C 49% 1018.4 hPa 0 mm - 446 W/m² -
1788363555 31.67° C 48% 1018.4 hPa 0 mm - 435 W/m² -
1788363254 31.11° C 50% 1018.4 hPa 0 mm - 416 W/m² -
1788362950 30.56° C 51% 1018.6 hPa 0 mm - 379 W/m² -
1788362646 30.56° C 51% 1018.4 hPa 0 mm - 372 W/m² -
1788362342 30° C 54% 1018.4 hPa 0 mm - 351 W/m² -
1788362037 30° C 55% 1018.1 hPa 0 mm - 76 W/m² -
1788361736 30° C 56% 1018.4 hPa 0 mm - 314 W/m² -

* Rain latest hour (hover to see other rain measurements)
** Current wind speed in m/s (hover to see current wind gust speed)